This demonstration page uses our WeatherBlox Daily Observations layout. Learn more.

Left ArrowRight Arrow

Hourly Observations for April 13, 2021

Temp ( °F °C ) Dew Point ( °F °C ) Humidity (%) Winds ( mph kmh ) Pressure ( in mb ) Visibility ( mi km ) Precip ( " mm )
12:53 am 00:53 Clear 52 11.1 42 5.6 69 69 Calm 30 1016 10 16.0934 0 0
1:53 am 01:53 Clear 51 10.6 41 5 69 69 WNW 3 6 30.01 1016 10 16.0934 0 0
2:53 am 02:53 Clear 49 9.4 39 3.9 69 69 Calm 30.02 1017 10 16.0934 0 0
3:53 am 03:53 Clear 48 8.9 39 3.9 71 71 N 6 9 30.02 1017 10 16.0934 0 0
4:53 am 04:53 Mostly Clear 50 10 39 3.9 66 66 NNW 7 11 30.04 1017 10 16.0934 0 0
5:53 am 05:53 Clear 48 8.9 39 3.9 71 71 NNW 3 6 30.05 1018 10 16.0934 0 0
6:53 am 06:53 Partly Cloudy 46 7.8 38 3.3 73 73 N 6 9 30.06 1018 10 16.0934 0 0
7:53 am 07:53 Cloudy 49 9.4 39 3.9 69 69 N 5 7 30.07 1018 10 16.0934 0 0
8:53 am 08:53 Cloudy 50 10 39 3.9 66 66 NNW 5 7 30.11 1020 10 16.0934 0 0
9:53 am 09:53 Cloudy 50 10 39 3.9 66 66 Calm 30.13 1020 10 16.0934 0 0
10:53 am 10:53 Mostly Cloudy 53 11.7 41 5 64 64 VRB 3 6 30.15 1021 10 16.0934 0 0
11:53 am 11:53 Sunny 57 13.9 34 1.1 42 42 Calm 30.14 1021 10 16.0934 0 0
12:53 pm 12:53 Sunny 59 15 34 1.1 39 39 VRB 3 6 30.12 1020 10 16.0934 0 0
1:53 pm 13:53 Sunny 61 16.1 36 2.2 39 39 W 5 7 30.11 1020 10 16.0934 0 0
2:53 pm 14:53 Sunny 64 17.8 37 2.8 37 37 Calm 30.09 1019 10 16.0934 0 0
3:53 pm 15:53 Sunny 65 18.3 39 3.9 39 39 NW 8 13 30.08 1019 10 16.0934 0 0
4:53 pm 16:53 Sunny 66 18.9 38 3.3 36 36 WNW 8 13 30.06 1018 10 16.0934 0 0
5:53 pm 17:53 Mostly Sunny 66 18.9 39 3.9 37 37 VRB 6 9 30.06 1018 10 16.0934 0 0
6:53 pm 18:53 Mostly Sunny 64 17.8 39 3.9 40 40 W 7 11 30.07 1018 10 16.0934 0 0
7:53 pm 19:53 Mostly Cloudy 62 16.7 39 3.9 43 43 WNW 3 6 30.07 1018 10 16.0934 0 0
8:53 pm 20:53 Mostly Clear 59 15 39 3.9 48 48 Calm 30.08 1019 10 16.0934 0 0
9:53 pm 21:53 Partly Cloudy 59 15 40 4.4 49 49 WSW 7 11 30.1 1019 10 16.0934 0 0
10:53 pm 22:53 Clear 57 13.9 40 4.4 53 53 W 6 9 30.11 1020 10 16.0934 0 0
11:53 pm 23:53 Mostly Clear 55 12.8 40 4.4 57 57 WNW 5 7 30.11 1020 10 16.0934 0 0

Powered by AerisWeather